Showing default

IHOPSAT-TD, 44859

Orbit data source: Space-Track

IHOPSAT-TD, 44859 is a payload satellite owned by Hera Systems (US) in LEO that was launched on Wed, 11 Dec 2019 UTC via a PSLV-QL launch vehicle from the Sirharikota (SRI). Payload-class satellites include a variety of spacecraft equipped with specific instruments for various scientific and technological missions. These include communications satellites like Starlink; space stations such as the ISS; scientific satellites like the Hubble; Earth observation satellites from companies like Planet Labs, Umbra, and HawkEye 360; GPS; miniature CubeSats for education and research; and military/defense satellites.

Loading next visibility...
Identifier
44859, 2019-089H
Orbit
LEO
Country
Flag of USUS
Related business
Manufacturer
Hera Systems
Mission
Operational Commercial Imaging
Bus & Motor
CUBESAT 12U, Unknown motor
Mass
22 kg wet, 22 kg dry
Launch date (UTC)
2019-12-11 (7 years ago)
Launch vehicle
PSLV-QL
Launch site
Sirharikota (SRI)
Object type
Payload
Rocket body
Debris
Shape & HBR
Box, Unknown HBR
Radar Cross Section
0.080 m², Medium (>0.1 m² and < 1m²)

Expand to show TLE details & history
Last TLE update: 21 hours ago

TLE from 21 hours ago
0 IHOPSAT-TD
1 44859U 19089H   26199.38719867  .00001116  00000-0  68799-4 0  9995
2 44859  36.9655 210.3331 0004464 150.3693 209.7307 15.11960391362717
Epoch: 2026-07-18T09:17Z
TLE epoch observation values (Epoch: 2026-07-18T09:17:33.965Z)
Latitude
0.00005°
Longitude
134.74097°
Altitude
532.019 km
Speed
7.597 km/s
True Right ascension
14h 01m 19s
True Declination
0° 00' 00"
Sunlit
Object was in daylight at epoch
Visualization orbit readout
Latitude
Unknown
Longitude
Unknown
Altitude
Unknown
Speed
Unknown
Apparent Right ascension
Unknown
Apparent Declination
Unknown
Sunlit
N/A
Visualization observer readout
Local Sidereal Time
19:27:55
Azimuth
Unknown
Elevation
Unknown
Doppler factor
Unknown
Orbital elements
Apogee altitude
536.23 km
Perigee altitude
530.059 km
Semi-major axis
6,911.281 km
Eccentricity
0.00045
Inclination
36.9655°
RAAN
210.3331°
Arg. of periapsis
150.3693°
True anomaly
209.70534°
Mean anomaly
209.7307°
Eccentric anomaly
209.71802°
Mean motion
3.77751 °/min
Orbital period
95.3 mins
BSTAR
0.000068799
Loading maneuver chart data...
Computing Atmospheric mass density...
Loading historical data...
Loading historical data...
Loading historical data...
Loading historical data...
Loading historical data...
Loading historical data...
Loading historical data...

Documentation

Showing up to 5 results
|